[[{"header":{"parameterUnit":"m.s-1","parameterCategory":1,"la1":30.2991,"la2":30.254,"lo1":-89.0895,"lo2":-89.0444,"dy":0.0017,"dx":0.0017,"nx":28,"ny":28,"refTime":"2024-05-23T03:00:00:Z","depth":0,"parameterNumber":2,"parameterNumberName":"U-component_of_WINDS"},"data":[0,0,0,0,0,0,0,0,0,0,0,0,0,0,0,0,0,0,0,0,0,0,0,0,0,0,0,0,0,0,0,0,0,0,0,0,0,0,0,0,0,0,0,0,0,0,0,0,0,0,0,0,0,0,0,0,0,0,-0.1887,-0.1887,0,-0.1919,-0.1919,-0.1919,-0.1958,-0.1959,-0.1959,-0.196,-0.1987,-0.1987,-0.1988,0,0,0,0,0,0,0,0,0,0,0,0,0,-0.1856,-0.1856,-0.1887,-0.1887,-0.1888,-0.1919,-0.1919,-0.192,-0.1958,-0.1959,-0.196,-0.196,-0.1987,-0.1987,-0.1988,0,0,0,0,0,0,0,0,0,0,0,0,0,-0.1876,-0.1856,-0.1887,-0.1911,-0.1913,-0.1919,-0.1919,-0.192,-0.1958,-0.1959,-0.196,-0.1961,-0.1987,-0.1987,-0.1988,-0.197,0,0,-0.1988,-0.1988,0,0,0,0,0,0,0,0,-0.1875,-0.1878,-0.1907,-0.1909,-0.1912,-0.1936,-0.1918,-0.1936,-0.1958,-0.1941,-0.196,-0.1961,-0.1969,-0.1971,-0.1975,-0.1972,-0.1973,-0.1988,-0.1988,-0.1989,-0.1989,0,0,0,0,0,0,0,-0.1874,-0.1876,-0.1899,-0.1907,-0.191,-0.1919,-0.1923,-0.1922,-0.1949,-0.1942,-0.1945,-0.1949,-0.197,-0.1974,-0.1975,-0.1973,-0.1988,-0.1988,-0.1989,-0.1989,-0.196,-0.1959,0,0,0,0,0,0,-0.1869,-0.1875,-0.1898,-0.19,-0.1896,-0.1919,-0.1923,-0.1927,-0.1949,-0.1954,-0.1948,-0.195,-0.1973,-0.1975,-0.1977,-0.1959,-0.1989,-0.1989,-0.1989,-0.1961,-0.1959,-0.1958,0,0,0,0,0,0,-0.1868,-0.1871,-0.1897,-0.1888,-0.1892,-0.1918,-0.1922,-0.1927,-0.1931,-0.1954,-0.1958,-0.1947,-0.1974,-0.1976,-0.1972,-0.1961,-0.1989,-0.1989,-0.1962,-0.196,-0.1959,-0.1923,0,0,0,0,0,0,-0.1867,-0.1871,-0.1865,-0.1888,-0.1893,-0.1893,-0.1921,-0.1927,-0.1932,-0.1935,-0.1954,-0.1958,-0.1975,-0.1972,-0.1973,-0.1961,-0.1989,-0.1963,-0.1961,-0.1959,-0.1926,-0.1921,-0.1917,0,0,0,0,0,-0.1866,-0.1852,-0.1864,-0.1867,-0.1886,-0.1892,-0.1895,-0.1917,-0.1931,-0.1925,-0.194,-0.1957,-0.1962,-0.1971,-0.1972,-0.1961,-0.1964,-0.1961,-0.1959,-0.1928,-0.1922,-0.1917,0,0,0,0,0,0,-0.1824,-0.1855,-0.1869,-0.1862,-0.1875,-0.1899,-0.1892,-0.191,-0.1917,-0.192,-0.1945,-0.1948,-0.1942,-0.1951,-0.1961,-0.1946,-0.1965,-0.1963,-0.1941,-0.1935,-0.1931,-0.1929,-0.1989,0,0,0,0,0,-0.1814,-0.1818,-0.1845,-0.1836,-0.1842,-0.1866,-0.1869,-0.1885,-0.1898,-0.1903,-0.1918,-0.1928,-0.1933,-0.1934,-0.1939,-0.1927,-0.1932,-0.192,-0.1916,-0.1912,-0.191,-0.1906,-0.1901,-0.1952,-0.1952,-0.1952,0,0,-0.1793,-0.1811,-0.1811,-0.1828,-0.1839,-0.1842,-0.187,-0.1871,-0.1873,-0.1903,-0.1901,-0.1912,-0.1926,-0.1918,-0.1916,-0.1926,-0.1897,-0.1909,-0.1906,-0.1906,-0.1903,-0.1898,-0.1894,-0.195,-0.1951,-0.1951,0,0,-0.1757,-0.1771,-0.1766,-0.1778,-0.1796,-0.1812,-0.1811,-0.1833,-0.1843,-0.1842,-0.1865,-0.1867,-0.1873,-0.1883,-0.1888,-0.1858,-0.1875,-0.1859,-0.1836,-0.1831,-0.1827,-0.1824,-0.1814,-0.181,-0.1857,-0.1857,-0.1856,0,-0.1728,-0.1735,-0.1761,-0.1761,-0.1768,-0.1798,-0.1793,-0.1803,-0.182,-0.1824,-0.1835,-0.1846,-0.1856,-0.1853,-0.1846,-0.1849,-0.1848,-0.1856,-0.1826,-0.1823,-0.182,-0.1811,-0.1807,-0.1855,-0.1855,-0.1855,-0.1855,0,-0.1699,-0.1703,-0.1697,-0.1716,-0.1722,-0.172,-0.1745,-0.1748,-0.1764,-0.1779,-0.1778,-0.1793,-0.1802,-0.1802,-0.1817,-0.1801,-0.1807,-0.1822,-0.1841,-0.1813,-0.1805,-0.1801,-0.1852,-0.1852,-0.1853,-0.1854,0,0,-0.1636,-0.1672,-0.1669,-0.1679,-0.1702,-0.1705,-0.1704,-0.1716,-0.1718,-0.1729,-0.1729,-0.1735,-0.175,-0.1757,-0.1772,-0.1768,-0.1745,-0.1784,-0.1785,-0.1777,-0.173,-0.1719,-0.1714,-0.1757,-0.1756,-0.1756,-0.1729,0,-0.1604,-0.1607,-0.1631,-0.1626,-0.1631,-0.166,-0.1659,-0.1673,-0.1688,-0.1693,-0.1708,-0.1712,-0.1731,-0.1735,-0.1733,-0.1749,-0.1736,-0.1751,-0.1756,-0.1756,-0.1752,-0.171,-0.1698,-0.1672,-0.1726,-0.1725,-0.1725,0,-0.1567,-0.158,-0.1576,-0.1602,-0.1604,-0.1603,-0.1617,-0.1621,-0.1638,-0.1649,-0.1657,-0.1676,-0.1676,-0.1695,-0.1696,-0.1706,-0.1709,-0.1717,-0.1717,-0.1718,-0.1739,-0.171,-0.1664,-0.166,-0.172,-0.172,-0.1721,0,-0.1523,-0.1538,-0.1539,-0.1546,-0.1575,-0.1574,-0.1586,-0.1604,-0.161,-0.1621,-0.1625,-0.1635,-0.164,-0.1648,-0.1669,-0.168,-0.1667,-0.1688,-0.1676,-0.1676,-0.1672,-0.1672,-0.1626,-0.1673,-0.1673,-0.1674,-0.1674,0,-0.1485,-0.1482,-0.152,-0.152,-0.1517,-0.1545,-0.1541,-0.1555,-0.1571,-0.1574,-0.1599,-0.1601,-0.1629,-0.1634,-0.165,-0.1649,-0.1651,-0.1659,-0.1664,-0.1657,-0.1656,-0.166,-0.1662,-0.1673,-0.1673,-0.1673,-0.1673,0,-0.1435,-0.146,-0.1463,-0.1491,-0.1498,-0.1495,-0.1519,-0.152,-0.1537,-0.154,-0.1543,-0.1569,-0.1576,-0.1598,-0.161,-0.1621,-0.1615,-0.1623,-0.161,-0.1613,-0.1601,-0.1602,-0.1556,-0.1551,-0.1601,-0.1601,-0.16,0,-0.141,-0.1408,-0.1438,-0.1443,-0.1454,-0.1461,-0.1468,-0.1496,-0.1502,-0.1522,-0.152,-0.153,-0.1539,-0.1549,-0.1568,-0.1578,-0.1587,-0.157,-0.1588,-0.1583,-0.1588,-0.1588,-0.1588,-0.1566,-0.1565,-0.1565,-0.1564,0,-0.1362,-0.1376,-0.1386,-0.1401,-0.1409,-0.1422,-0.1435,-0.1437,-0.1468,-0.1473,-0.1483,-0.149,-0.1504,-0.1514,-0.1527,-0.1538,-0.1556,-0.1559,-0.1557,-0.155,-0.1543,-0.1548,-0.16,-0.1559,-0.156,-0.156,-0.1561,-0.1561,-0.1324,-0.1325,-0.1347,-0.1358,-0.1372,-0.1384,-0.1388,-0.1406,-0.1415,-0.143,-0.1445,-0.1453,-0.147,-0.149,-0.15,-0.1506,-0.1515,-0.1512,-0.1511,-0.151,-0.1508,-0.1542,-0.1508,-0.1508,-0.1508,-0.1508,-0.1508,0,-0.1279,-0.1295,-0.1305,-0.1325,-0.1334,-0.1353,-0.1369,-0.1375,-0.1382,-0.1397,-0.1407,-0.1418,-0.1428,-0.1449,-0.146,-0.1461,-0.147,-0.1463,-0.1463,-0.1466,-0.1498,-0.1499,-0.1456,-0.1456,-0.1456,-0.1456,-0.1456,-0.1456,-0.1257,-0.126,-0.1276,-0.1286,-0.1302,-0.1311,-0.1319,-0.1331,-0.1344,-0.1356,-0.1365,-0.138,-0.1397,-0.1411,-0.142,-0.1426,-0.1429,-0.142,-0.1428,-0.1458,-0.1463,-0.1468,-0.1469,-0.142,-0.142,-0.1396,-0.1396,-0.1396]},{"header":{"parameterUnit":"m.s-1","parameterCategory":1,"la1":30.2991,"la2":30.254,"lo1":-89.0895,"lo2":-89.0444,"dy":0.0017,"dx":0.0017,"nx":28,"ny":28,"refTime":"2024-05-23T03:00:00:Z","depth":0,"parameterNumber":3,"parameterNumberName":"V-component_of_WINDS"},"data":[0,0,0,0,0,0,0,0,0,0,0,0,0,0,0,0,0,0,0,0,0,0,0,0,0,0,0,0,0,0,0,0,0,0,0,0,0,0,0,0,0,0,0,0,0,0,0,0,0,0,0,0,0,0,0,0,0,0,5.6898,5.6898,0,5.6907,5.6907,5.6907,5.6831,5.6829,5.6827,5.6825,5.6832,5.6834,5.6836,0,0,0,0,0,0,0,0,0,0,0,0,0,5.6812,5.6814,5.6898,5.6898,5.6898,5.6907,5.6907,5.6907,5.6831,5.6829,5.6826,5.6824,5.6831,5.6834,5.6836,0,0,0,0,0,0,0,0,0,0,0,0,0,5.6838,5.6815,5.6898,5.6861,5.6858,5.6907,5.6907,5.6907,5.6832,5.6829,5.6825,5.6822,5.683,5.6833,5.6837,5.692,0,0,5.6846,5.6848,0,0,0,0,0,0,0,0,5.6837,5.6841,5.6867,5.6864,5.6861,5.6865,5.6879,5.6911,5.6833,5.6842,5.6825,5.6821,5.6845,5.6847,5.6855,5.692,5.6921,5.6847,5.6849,5.685,5.6851,0,0,0,0,0,0,0,5.6835,5.684,5.6901,5.6867,5.6863,5.6844,5.6844,5.6885,5.6861,5.6841,5.6835,5.6837,5.6843,5.6853,5.6855,5.6921,5.6847,5.685,5.6852,5.6853,5.7053,5.7056,0,0,0,0,0,0,5.6839,5.684,5.6901,5.6902,5.6841,5.6848,5.6848,5.6866,5.686,5.6856,5.684,5.6834,5.6849,5.6851,5.6855,5.6951,5.685,5.6853,5.6855,5.7049,5.7053,5.7057,0,0,0,0,0,0,5.6837,5.6845,5.6901,5.6869,5.6875,5.6853,5.6874,5.6868,5.6878,5.686,5.6855,5.6855,5.6846,5.685,5.6904,5.695,5.6855,5.6858,5.7045,5.7051,5.7055,5.7144,0,0,0,0,0,0,5.6835,5.6845,5.6877,5.687,5.6877,5.6951,5.6877,5.6871,5.6884,5.6876,5.6872,5.6869,5.6844,5.69,5.6907,5.6953,5.686,5.7041,5.7048,5.7054,5.7137,5.7151,5.7164,0,0,0,0,0,5.6832,5.6902,5.6879,5.6887,5.6917,5.6954,5.6957,5.6928,5.6888,5.6919,5.6908,5.6869,5.6944,5.6906,5.6914,5.6961,5.7038,5.7046,5.7053,5.7131,5.7149,5.7164,0,0,0,0,0,0,5.6913,5.69,5.6875,5.6944,5.6951,5.6941,5.6979,5.6948,5.6965,5.6957,5.6919,5.6919,5.6979,5.6975,5.6933,5.704,5.6984,5.6994,5.704,5.7057,5.707,5.7069,5.6863,0,0,0,0,0,5.694,5.6971,5.6958,5.702,5.7025,5.7002,5.7017,5.6994,5.6999,5.7001,5.6993,5.6999,5.7023,5.704,5.7062,5.7137,5.7134,5.7173,5.7186,5.7198,5.7206,5.7243,5.726,5.7082,5.7082,5.7082,0,0,5.6994,5.699,5.7013,5.7037,5.7039,5.7071,5.7005,5.7043,5.7066,5.7006,5.7056,5.7051,5.7054,5.7119,5.7146,5.7117,5.7254,5.7207,5.7216,5.7218,5.7253,5.7269,5.7284,5.7087,5.7086,5.7085,0,0,5.7108,5.711,5.7161,5.7165,5.7169,5.7153,5.7166,5.7161,5.7155,5.7205,5.716,5.7187,5.7231,5.7235,5.7243,5.7359,5.7323,5.7367,5.7437,5.7474,5.7488,5.75,5.7539,5.7554,5.7375,5.7376,5.7376,0,5.7174,5.7223,5.7192,5.7232,5.7243,5.7192,5.7242,5.7247,5.7259,5.7267,5.7235,5.7288,5.7287,5.735,5.7378,5.7387,5.7399,5.7366,5.7489,5.75,5.7511,5.7548,5.7564,5.7381,5.738,5.738,5.7379,0,5.7303,5.7337,5.7378,5.739,5.7406,5.7452,5.7426,5.7446,5.7422,5.7409,5.746,5.7457,5.7476,5.749,5.7467,5.755,5.7532,5.7495,5.7437,5.7534,5.7568,5.7582,5.7388,5.7386,5.7385,5.7384,0,0,5.7468,5.7462,5.7477,5.7482,5.7483,5.7508,5.7551,5.757,5.7587,5.7597,5.7631,5.7669,5.7635,5.7643,5.762,5.7653,5.7743,5.7612,5.7611,5.7634,5.7832,5.7858,5.7875,5.772,5.7722,5.7725,5.7831,0,5.7578,5.7651,5.7624,5.7698,5.7728,5.768,5.7717,5.7721,5.771,5.7734,5.7722,5.7749,5.7702,5.7707,5.7737,5.7726,5.7782,5.7718,5.7749,5.7751,5.7748,5.7894,5.7922,5.8022,5.7844,5.7847,5.7848,0,5.7716,5.7731,5.7808,5.7803,5.7814,5.7848,5.7863,5.7887,5.789,5.788,5.789,5.786,5.79,5.7844,5.7898,5.7856,5.7867,5.7863,5.7866,5.7866,5.7804,5.7896,5.8054,5.8068,5.7869,5.7868,5.7866,0,5.7825,5.7865,5.7916,5.7922,5.7917,5.7942,5.7941,5.7941,5.7955,5.7968,5.7976,5.7994,5.8003,5.8018,5.7992,5.7954,5.805,5.7992,5.8041,5.8042,5.8062,5.806,5.8222,5.8073,5.8073,5.8073,5.8072,0,5.795,5.7998,5.7965,5.7997,5.8049,5.8018,5.8071,5.8065,5.8065,5.8093,5.8053,5.8081,5.8047,5.8071,5.8051,5.8098,5.8103,5.8095,5.8089,5.8098,5.8099,5.8103,5.8095,5.8077,5.8076,5.8075,5.8074,0,5.808,5.806,5.8112,5.8104,5.8103,5.8142,5.8135,5.8162,5.8149,5.8186,5.8192,5.8172,5.8198,5.8174,5.82,5.8186,5.8248,5.8233,5.8247,5.8242,5.8292,5.8287,5.846,5.8481,5.8321,5.8323,5.8324,0,5.816,5.8196,5.8192,5.8208,5.821,5.8237,5.825,5.822,5.8236,5.8242,5.8269,5.8292,5.8308,5.8352,5.8338,5.8357,5.8341,5.84,5.8343,5.835,5.8339,5.8336,5.8339,5.8411,5.8413,5.8415,5.8416,0,5.8302,5.8291,5.8311,5.8329,5.8346,5.8358,5.8367,5.8383,5.8352,5.8372,5.8398,5.8411,5.8436,5.8458,5.8473,5.8471,5.8438,5.8434,5.8446,5.8454,5.846,5.8455,5.8277,5.843,5.8428,5.8427,5.8427,5.8426,5.8408,5.8437,5.8439,5.8463,5.8467,5.8476,5.8502,5.8492,5.8513,5.8532,5.8513,5.8545,5.8546,5.8562,5.8564,5.8588,5.8563,5.8581,5.8585,5.8589,5.8595,5.8458,5.8591,5.859,5.859,5.859,5.8589,0,5.8547,5.8545,5.8568,5.8582,5.8601,5.8569,5.8577,5.8595,5.8623,5.8628,5.8645,5.8674,5.8696,5.8685,5.8703,5.8724,5.871,5.873,5.8727,5.8727,5.8618,5.8605,5.8741,5.8741,5.8741,5.8741,5.8741,5.8741,5.8621,5.8668,5.8657,5.8705,5.8703,5.8734,5.8741,5.8749,5.8752,5.8787,5.8805,5.8798,5.8796,5.8814,5.8832,5.8828,5.8836,5.8861,5.8852,5.875,5.8735,5.872,5.8707,5.8864,5.8864,5.8958,5.8959,5.896]}]]